This is the latest recevied weather packets stored in our database for station/object HB9TJR-3. If no packets are shown the sender has not sent any weather packets the latest 10 day(s).
| Time | Temp. | Humidity | Pressure | Rain* | Wind** | Luminosity | Snow |
|---|---|---|---|---|---|---|---|
| 1777840295 | 10.56° C | 67% | 865.6 hPa | 0 mm | - | - | - |
| 1777839334 | 10.56° C | 68% | 865.6 hPa | 0 mm | - | - | - |
| 1777838374 | 10.56° C | 69% | 865.4 hPa | 0 mm | - | - | - |
| 1777836454 | 10.56° C | 70% | 865.3 hPa | 0 mm | - | - | - |
| 1777834534 | 10.56° C | 70% | 865 hPa | 0 mm | - | - | - |
| 1777833574 | 11.11° C | 71% | 865 hPa | 0 mm | - | - | - |
| 1777832614 | 11.11° C | 71% | 864.9 hPa | 0 mm | - | - | - |
| 1777831654 | 11.11° C | 71% | 865 hPa | 0 mm | - | - | - |
| 1777830694 | 11.11° C | 69% | 864.9 hPa | 0 mm | - | - | - |
| 1777829734 | 11.11° C | 70% | 865.1 hPa | 0 mm | - | - | - |
| 1777828774 | 11.11° C | 70% | 865.1 hPa | 0 mm | - | - | - |
| 1777825894 | 10.56° C | 75% | 865.5 hPa | 0 mm | - | - | - |
| 1777824934 | 10.56° C | 73% | 865.5 hPa | 0 mm | - | - | - |
| 1777823974 | 11.11° C | 69% | 865.6 hPa | 0 mm | - | - | - |
| 1777823014 | 11.11° C | 67% | 865.7 hPa | 0 mm | - | - | - |
| 1777822054 | 11.67° C | 65% | 865.9 hPa | 0 mm | - | - | - |
| 1777821094 | 12.22° C | 64% | 865.9 hPa | 0 mm | - | - | - |
| 1777820134 | 12.22° C | 64% | 865.9 hPa | 0 mm | - | - | - |
| 1777819174 | 12.22° C | 64% | 866.1 hPa | 0 mm | - | - | - |
| 1777817254 | 12.78° C | 60% | 866.3 hPa | 0 mm | - | - | - |
| 1777816294 | 12.22° C | 67% | 866.4 hPa | 0 mm | - | - | - |
| 1777815334 | 12.78° C | 55% | 866.2 hPa | 0 mm | - | - | - |
| 1777814374 | 12.78° C | 55% | 866.3 hPa | 0 mm | - | - | - |
| 1777812454 | 12.78° C | 62% | 866.7 hPa | 0 mm | - | - | - |
| 1777811494 | 13.33° C | 70% | 866.7 hPa | 0 mm | - | - | - |
* Rain latest hour (hover to see other rain measurements)
** Current wind speed in m/s (hover to see current wind gust speed)